STARLINK-33829, 63496

Orbit data source: Space-Track

STARLINK-33829, 63496 is a payload satellite owned by SpaceX/Seattle (US) in LEO that was launched on Mon, 07 Apr 2025 UTC via an FALCON 9 launch vehicle from the Air Force Western Test Range (AFWTR). Payload-class satellites include a variety of spacecraft equipped with specific instruments for various scientific and technological missions. These include communications satellites like Starlink; space stations such as the ISS; scientific satellites like the Hubble; Earth observation satellites from companies like Planet Labs, Umbra, and HawkEye 360; GPS; miniature CubeSats for education and research; and military/defense satellites.

Loading next visibility...
Identifier
63496, 2025-071D
Orbit
LEO
Last TLE update
12 hours ago
Origin
Manufacturer
SpaceX/Seattle
Mission
Operational Commercial Communications
Bus & Motor
STARLINK V2MO, Unknown motor
Mass
575 kg wet, ~530 kg dry
Launch date (UTC)
2025-04-07 (3 months ago)
Launch vehicle
FALCON 9
Launch site
Air Force Western Test Range (AFWTR)
Object type
Payload
Rocket body
Debris
Shape & HBR
Box + 1 Pan, 29 m
Radar Cross Section
41.120 m², Large (>1 m²)

Expand to show TLE details & history

TLE from 12 hours ago
0 STARLINK-33829
1 63496U 25071D   25182.40782341  .00025220  00000-0  63827-3 0  9990
2 63496  53.1569 228.0945 0001214  55.8793 304.2327 15.39625440 14223
Epoch: 2025-07-01T09:47Z
TLE epoch observation values (Epoch: 2025-07-01T09:47:15.942Z)
Latitude
-0.00002°
Longitude
161.57435°
Altitude
447.653 km
Speed
7.645 km/s
True Right ascension
15h 12m 22s
True Declination
0° 00' 00"
Sunlit
Object was in full shadow at epoch
Visualization orbit readout
Latitude
-51.01543°
Longitude
92.16871°
Altitude
465.351 km
Speed
7.633 km/s
Apparent Right ascension
17h 49m 45s
Apparent Declination
-81° 59' 31"
Sunlit
Object is in daylight
Visualization observer readout
Local Sidereal Time
09:35:43
Azimuth
170.711° S
Elevation
-43.979°
Doppler factor
1
Orbital elements
Apogee altitude
448.303 km
Perigee altitude
446.645 km
Semi-major axis
6,825.611 km
Eccentricity
0.00012
Inclination
53.1569°
RAAN
228.0945°
Arg. of periapsis
55.8793°
True anomaly
Unknown
Mean anomaly
304.2327°
Eccentric anomaly
Unknown
Mean motion
3.84885 °/min
Orbital period
93.53 mins
BSTAR
0.00063827
Loading maneuver chart data...
Loading SW <> Apogee altitude chart data...
Loading historical data...
Loading historical data...
Loading historical data...
Loading historical data...
Loading historical data...
Loading historical data...
Loading historical data...

STARLINK-33829 Visibility forecast

Observer location: undefined°, undefined°

Span
Click to sort rows by Start time (UTC) header in descending order
Start Az.
Max El. time (UTC)
Max El. Az.
Max El.
End time (UTC)
End Az.
4 mins2025-07-02 04:38:23.321Z166.051° S2025-07-02 04:40:23.321Z127.126° SE16.804°2025-07-02 04:42:23.321Z89.273° E
5 mins2025-07-02 06:15:23.321Z257.689° W2025-07-02 06:17:23.321Z327.967° NNW37.008°2025-07-02 06:20:23.321Z39.292° NE
5 mins2025-07-02 12:47:23.321Z300.352° NW2025-07-02 12:49:23.321Z261.86° W39.352°2025-07-02 12:52:23.321Z145.38° SSE
|